Location: ?ejeti?ky
(50.4060°N, 14.9016°E)
Time: 15:15:00
(UTC+00:00)

Cosmos 2184 Rocket - Pass Details

Date: 07 June 2020
Orbit: 960 x 1001 km, 82.9° (Epoch: 09 July)

Event Time Altitude Azimuth Distance (km) Brightness Sun altitude
Exits shadow 01:16:26 14° 210° (SSW) 2,421 5.4 -10.8°
Maximum altitude 01:21:42 55° 285° (WNW) 1,150 4.3 -10.3°
Drops below altitude 10° 01:27:47 10° 3° (N) 2,711 7.3 -9.8°
Sets 01:30:22 0° 8° (N) 3,666 8.3 -9.6°
